Overview Statistics Trail Chart Weather Telemetry Raw packets
 

This is the latest recevied weather packets stored in our database for station/object 4S6DRJ-13. If no packets are shown the sender has not sent any weather packets the latest 10 day(s).

<< 83 84 85 86 87 88 89 >>
Time Temp. Humidity Pressure Rain* Wind** Luminosity Snow
1788328355 31.11° C 72% 1010.4 hPa 0 mm 0 m/s 1137 W/m² -
1788328294 30.56° C 72% 1010.4 hPa 0 mm 1.34 m/s, 313° 354 W/m² -
1788328233 30.56° C 72% 1010.6 hPa 0 mm 1.79 m/s, 166° 1143 W/m² -
1788328173 30.56° C 72% 1010.4 hPa 0 mm 2.24 m/s, 177° 673 W/m² -
1788328112 30.56° C 71% 1010.7 hPa 0 mm 2.68 m/s, 264° 1138 W/m² -
1788328050 30.56° C 71% 1010.5 hPa 0 mm 1.79 m/s, 210° 1138 W/m² -
1788327989 31.11° C 70% 1010.5 hPa 0 mm 2.24 m/s, 91° 315 W/m² -
1788327928 31.11° C 70% 1010.5 hPa 0 mm 2.24 m/s, 255° 317 W/m² -
1788327867 31.11° C 69% 1010.3 hPa 0 mm 3.58 m/s, 256° 1137 W/m² -
1788327806 31.11° C 69% 1010.4 hPa 0 mm 2.68 m/s, 245° 436 W/m² -
1788327745 31.11° C 71% 1010.5 hPa 0 mm 1.34 m/s, 250° 567 W/m² -
1788327684 31.11° C 70% 1010.5 hPa 0 mm 0.89 m/s, 204° 415 W/m² -
1788327623 31.11° C 70% 1010.6 hPa 0 mm 1.34 m/s, 196° 1133 W/m² -
1788327562 31.11° C 71% 1010.3 hPa 0 mm 2.24 m/s, 317° 635 W/m² -
1788327501 31.11° C 71% 1010.4 hPa 0 mm 0.89 m/s, 247° 1129 W/m² -
1788327440 31.11° C 71% 1010.4 hPa 0 mm 1.79 m/s, 260° 493 W/m² -
1788327379 31.11° C 71% 1010.5 hPa 0 mm 0.89 m/s, 251° 394 W/m² -
1788327318 31.11° C 70% 1010.4 hPa 0 mm 2.24 m/s, 301° 372 W/m² -
1788327257 31.11° C 70% 1010.5 hPa 0 mm 1.34 m/s, 273° 1142 W/m² -
1788327196 31.11° C 70% 1010.5 hPa 0 mm 1.79 m/s, 255° 1140 W/m² -
1788327135 31.11° C 70% 1010.2 hPa 0 mm 0.89 m/s, 21° 394 W/m² -
1788327075 31.11° C 69% 1010.4 hPa 0 mm 2.68 m/s, 279° 1134 W/m² -
1788327013 31.11° C 70% 1010.6 hPa 0 mm 1.34 m/s, 332° 790 W/m² -
1788326952 31.11° C 70% 1010.6 hPa 0 mm 0.89 m/s, 252° 1135 W/m² -
1788326891 31.11° C 71% 1010.5 hPa 0 mm 0 m/s 425 W/m² -

* Rain latest hour (hover to see other rain measurements)
** Current wind speed in m/s (hover to see current wind gust speed)